Portada
METAR-TAF:

METAR-TAF

Aeroports :

Kingstree, Carolina del Sud, Estats Units d'Amèrica

latitud: 33-43-02N, longitud: 079-51-25W, altitud: 20 m

Observació

L'informe es va fer fa 6 minuts, a les 16:55 UTC
Vent 15 kt del Oest/Sud-Oest amb ràfegues de 22 kt
Temperatura 8°C
Humitat 42%
Pressió 1008 hPa
Visibilitat: 16.1 km
Cel clar

METAR: KCKI 161655Z AUTO 25015G22KT 10SM CLR 08/M04 A2977 RMK AO2

Hora: 12:01 (17:01 UTC)


TAF: manca

Observacions i pronòstics meteorològics de més de 4000 aeroports (METAR i TAF).

Les estacions disponibles són els punts grocs i vermells al mapa.

Posi el ratolí al punt desitjat per veure el nom de l'estació.

Feu clic per veure les observacions i els pronòstics meteorològics.

Per canviar el mapa: feu clic els botons verds amb una creu de color negre per apropar; al botó verd amb un guió per allunyar la imatge; o en les fletxes verdes per a mapes adjacents.


METAR-TAF: